SVA861 RPLL-OERK

Flight info

Callsign SVA861
Flight time N/A
Altitude 34000
Route SIRCA2R SIRCA L628 ARESI/K0932F340 L628 PCA G474 ANINA/N0501F340 G474 VEMKO/N0437F240 G474 OMURO/N0500F340 G474 ANREN/N0501F360 G474 BKK L301 BUSBO/N0499F380 L301 RAGMA N571 MENSA/N0479F340 N571 TUDIS P699 EGTAG/N0488F380 P699 NARMI N112 GETOT Q212 ASNUM
Aircraft A388/J-SADE2E3FGHIJ3J4J5M1RWXY/LB1D1

Departure

Time 2026-05-08 07:11
Airport Ninoy Aquino International Airport (RPLL)

Arrival

Time N/A
Airport King Khalid International Airport (OERK)
Time Latitude Longitude Altitude Speed Heading
2026-05-08 06:39 14.50475 121.00403 73 ft 0 kts 120°
2026-05-08 06:59 14.50475 121.00404 73 ft 0 kts 120°
2026-05-08 06:59 14.50474 121.00405 73 ft 1 kts 120°
2026-05-08 06:59 14.50473 121.00406 73 ft 0 kts 120°
2026-05-08 07:00 14.50476 121.00401 73 ft 3 kts 120°
2026-05-08 07:00 14.50485 121.00385 62 ft 3 kts 120°
2026-05-08 07:00 14.50495 121.00369 62 ft 3 kts 126°
2026-05-08 07:00 14.50507 121.00356 62 ft 3 kts 134°
2026-05-08 07:01 14.50523 121.00344 62 ft 3 kts 153°
2026-05-08 07:01 14.50541 121.00342 62 ft 0 kts 187°
2026-05-08 07:01 14.50543 121.00343 62 ft 0 kts 187°
2026-05-08 07:03 14.50541 121.00342 72 ft 0 kts 190°
2026-05-08 07:03 14.50538 121.00342 62 ft 0 kts 197°
2026-05-08 07:03 14.50522 121.00336 63 ft 4 kts 199°
2026-05-08 07:04 14.50483 121.00322 69 ft 7 kts 199°
2026-05-08 07:04 14.50430 121.00303 67 ft 9 kts 199°
2026-05-08 07:04 14.50364 121.00285 67 ft 10 kts 187°
2026-05-08 07:04 14.50308 121.00281 68 ft 0 kts 181°
2026-05-08 07:05 14.50292 121.00280 72 ft 4 kts 177°
2026-05-08 07:05 14.50252 121.00289 75 ft 7 kts 159°
2026-05-08 07:05 14.50211 121.00307 84 ft 4 kts 154°
2026-05-08 07:05 14.50171 121.00327 80 ft 8 kts 161°
2026-05-08 07:06 14.50123 121.00320 80 ft 7 kts 229°
2026-05-08 07:06 14.50088 121.00272 85 ft 10 kts 239°
2026-05-08 07:06 14.50049 121.00203 87 ft 12 kts 240°
2026-05-08 07:06 14.50009 121.00130 89 ft 12 kts 240°
2026-05-08 07:07 14.49969 121.00057 89 ft 12 kts 240°
2026-05-08 07:07 14.49927 120.99989 91 ft 10 kts 224°
2026-05-08 07:07 14.49872 120.99972 93 ft 7 kts 162°
2026-05-08 07:07 14.49828 120.99991 91 ft 7 kts 148°
2026-05-08 07:08 14.49803 121.00018 89 ft 4 kts 105°
2026-05-08 07:08 14.49804 121.00043 92 ft 1 kts 68°
2026-05-08 07:08 14.49805 121.00044 92 ft 0 kts 63°
2026-05-08 07:09 14.49815 121.00064 91 ft 12 kts 63°
2026-05-08 07:09 14.49917 121.00257 87 ft 61 kts 60°
2026-05-08 07:10 14.50108 121.00606 65 ft 103 kts 60°
2026-05-08 07:10 14.50724 121.01711 49 ft 159 kts 61°
2026-05-08 07:10 14.51323 121.02751 163 ft 174 kts 61°
2026-05-08 07:10 14.51969 121.03792 632 ft 169 kts 63°
2026-05-08 07:11 14.52368 121.04492 934 ft 167 kts 64°
2026-05-08 07:11 14.53090 121.05880 1545 ft 166 kts 64°
2026-05-08 07:11 14.53430 121.06591 1825 ft 166 kts 65°
2026-05-08 07:11 14.53962 121.07643 2287 ft 165 kts 64°
2026-05-08 07:12 14.54483 121.08681 2737 ft 165 kts 64°
2026-05-08 07:12 14.55015 121.09728 3171 ft 161 kts 64°
2026-05-08 07:12 14.55532 121.10747 3631 ft 159 kts 64°
2026-05-08 07:12 14.56040 121.11766 4061 ft 159 kts 64°
2026-05-08 07:13 14.56528 121.12776 4491 ft 157 kts 64°
2026-05-08 07:13 14.57054 121.13767 4910 ft 157 kts 56°
2026-05-08 07:13 14.57801 121.14580 5262 ft 160 kts 31°
2026-05-08 07:13 14.58935 121.14818 5370 ft 184 kts 355°
2026-05-08 07:14 14.60248 121.14265 5313 ft 216 kts 334°
2026-05-08 07:14 14.61505 121.13450 5928 ft 212 kts 328°
2026-05-08 07:14 14.62683 121.12558 6582 ft 216 kts 326°
2026-05-08 07:14 14.63857 121.11536 7021 ft 230 kts 320°
2026-05-08 07:15 14.64995 121.10329 7556 ft 241 kts 314°
2026-05-08 07:15 14.66071 121.08947 8135 ft 250 kts 308°
2026-05-08 07:15 14.67040 121.07434 8757 ft 255 kts 303°
2026-05-08 07:15 14.67890 121.05804 9417 ft 258 kts 298°
2026-05-08 07:16 14.68598 121.04094 10020 ft 260 kts 292°
2026-05-08 07:16 14.69164 121.02307 10598 ft 262 kts 287°
2026-05-08 07:16 14.69462 121.00447 11137 ft 265 kts 267°
2026-05-08 07:16 14.68992 120.98610 11650 ft 268 kts 244°
2026-05-08 07:17 14.68096 120.96904 12138 ft 271 kts 241°
2026-05-08 07:17 14.67208 120.95168 12645 ft 274 kts 244°
2026-05-08 07:17 14.66432 120.93373 13117 ft 276 kts 248°
2026-05-08 07:17 14.65734 120.91516 13576 ft 278 kts 250°
2026-05-08 07:18 14.65077 120.89620 13963 ft 281 kts 251°
2026-05-08 07:18 14.64443 120.87735 14343 ft 282 kts 251°
2026-05-08 07:18 14.63793 120.85788 14722 ft 284 kts 251°
2026-05-08 07:18 14.63143 120.83847 15045 ft 289 kts 251°
2026-05-08 07:19 14.62478 120.81871 15311 ft 294 kts 251°
2026-05-08 07:19 14.61802 120.79865 15649 ft 296 kts 250°
2026-05-08 07:19 14.61124 120.77858 16000 ft 298 kts 250°
2026-05-08 07:19 14.60451 120.75863 16314 ft 300 kts 250°
2026-05-08 07:20 14.59750 120.73790 16402 ft 311 kts 250°
2026-05-08 07:20 14.59027 120.71650 16492 ft 320 kts 250°
2026-05-08 07:20 14.58281 120.69444 16569 ft 329 kts 250°
2026-05-08 07:20 14.57557 120.67303 16637 ft 336 kts 250°
2026-05-08 07:21 14.56778 120.64999 16751 ft 341 kts 250°
2026-05-08 07:21 14.56318 120.63641 16882 ft 342 kts 250°
2026-05-08 07:21 14.55530 120.61311 17134 ft 342 kts 250°
2026-05-08 07:21 14.54747 120.58996 17350 ft 344 kts 250°
2026-05-08 07:22 14.53984 120.56746 17566 ft 346 kts 250°
2026-05-08 07:22 14.53185 120.54385 17784 ft 347 kts 250°
2026-05-08 07:22 14.52388 120.52031 18020 ft 348 kts 250°
2026-05-08 07:22 14.51589 120.49674 18217 ft 350 kts 250°
2026-05-08 07:23 14.50782 120.47297 18419 ft 350 kts 250°
2026-05-08 07:23 14.49983 120.44942 18581 ft 352 kts 250°
2026-05-08 07:23 14.49173 120.42554 18756 ft 353 kts 250°
2026-05-08 07:23 14.48363 120.40167 18947 ft 353 kts 250°
2026-05-08 07:24 14.47549 120.37775 19132 ft 354 kts 250°
2026-05-08 07:24 14.46735 120.35370 19324 ft 354 kts 252°
2026-05-08 07:24 14.46116 120.32909 19492 ft 356 kts 260°
2026-05-08 07:24 14.45821 120.30371 19682 ft 356 kts 267°
2026-05-08 07:25 14.45674 120.27821 19863 ft 356 kts 266°
2026-05-08 07:25 14.45501 120.25276 20057 ft 357 kts 266°
2026-05-08 07:25 14.45136 120.20186 20409 ft 358 kts 266°
2026-05-08 07:26 14.44951 120.17610 20582 ft 359 kts 266°
2026-05-08 07:26 14.44768 120.15045 20746 ft 359 kts 266°
2026-05-08 07:26 14.44584 120.12469 20914 ft 360 kts 266°
2026-05-08 07:26 14.44401 120.09897 21067 ft 360 kts 266°
2026-05-08 07:27 14.44217 120.07323 21220 ft 361 kts 266°
2026-05-08 07:27 14.44033 120.04738 21329 ft 358 kts 266°
2026-05-08 07:27 14.43849 120.02166 21338 ft 361 kts 266°
2026-05-08 07:27 14.43663 119.99570 21421 ft 362 kts 266°
2026-05-08 07:28 14.43478 119.96990 21526 ft 362 kts 266°
2026-05-08 07:28 14.43291 119.94391 21616 ft 363 kts 266°
2026-05-08 07:28 14.43105 119.91801 21713 ft 363 kts 266°
2026-05-08 07:28 14.42918 119.89205 21803 ft 363 kts 266°
2026-05-08 07:29 14.42729 119.86597 21893 ft 364 kts 266°
2026-05-08 07:29 14.42541 119.83993 21984 ft 364 kts 266°
2026-05-08 07:29 14.42355 119.81424 22061 ft 365 kts 266°
2026-05-08 07:29 14.42166 119.78821 22145 ft 365 kts 266°
2026-05-08 07:30 14.41976 119.76205 22240 ft 366 kts 266°
2026-05-08 07:30 14.41786 119.73589 22322 ft 366 kts 266°
2026-05-08 07:30 14.41593 119.70942 22405 ft 366 kts 266°
2026-05-08 07:30 14.41401 119.68321 22483 ft 367 kts 266°
2026-05-08 07:31 14.41209 119.65693 22568 ft 367 kts 266°
2026-05-08 07:31 14.41017 119.63067 22654 ft 367 kts 266°
2026-05-08 07:31 14.40841 119.60665 22725 ft 368 kts 266°
2026-05-08 07:31 14.40644 119.57991 22847 ft 371 kts 266°
2026-05-08 07:32 14.40449 119.55331 22920 ft 379 kts 266°
2026-05-08 07:32 14.40247 119.52592 23019 ft 388 kts 266°
2026-05-08 07:32 14.40041 119.49789 23105 ft 397 kts 266°
2026-05-08 07:32 14.39828 119.46912 23189 ft 405 kts 266°
2026-05-08 07:33 14.39611 119.43989 23278 ft 414 kts 266°
2026-05-08 07:33 14.39390 119.41006 23369 ft 421 kts 266°
2026-05-08 07:33 14.39163 119.37955 23441 ft 429 kts 266°
2026-05-08 07:33 14.38934 119.34869 23491 ft 437 kts 266°
2026-05-08 07:34 14.38699 119.31720 23572 ft 444 kts 266°
2026-05-08 07:34 14.38460 119.28525 23637 ft 450 kts 266°
2026-05-08 07:34 14.38217 119.25282 23700 ft 457 kts 266°
2026-05-08 07:34 14.37970 119.21987 23759 ft 464 kts 266°
2026-05-08 07:35 14.37722 119.18680 23822 ft 470 kts 266°
2026-05-08 07:35 14.37464 119.15253 23884 ft 477 kts 266°
2026-05-08 07:35 14.37205 119.11829 23941 ft 483 kts 266°
2026-05-08 07:35 14.36944 119.08368 24073 ft 487 kts 266°
2026-05-08 07:36 14.36680 119.04885 24279 ft 488 kts 266°
2026-05-08 07:36 14.36413 119.01376 24526 ft 489 kts 266°
2026-05-08 07:36 14.36147 118.97880 24766 ft 491 kts 266°
2026-05-08 07:36 14.35879 118.94362 24993 ft 493 kts 266°
2026-05-08 07:37 14.35609 118.90819 25232 ft 495 kts 266°
2026-05-08 07:37 14.35339 118.87285 25480 ft 496 kts 266°
2026-05-08 07:37 14.35065 118.83718 25725 ft 498 kts 266°
2026-05-08 07:37 14.34792 118.80161 25981 ft 500 kts 266°
2026-05-08 07:38 14.34520 118.76626 26227 ft 502 kts 266°
2026-05-08 07:38 14.34239 118.72980 26480 ft 504 kts 266°
2026-05-08 07:38 14.33968 118.69462 26730 ft 506 kts 266°
2026-05-08 07:38 14.33682 118.65766 27020 ft 508 kts 266°
2026-05-08 07:39 14.33403 118.62172 27285 ft 510 kts 266°
2026-05-08 07:39 14.33119 118.58511 27550 ft 512 kts 266°
2026-05-08 07:39 14.32833 118.54843 27818 ft 514 kts 266°
2026-05-08 07:39 14.32546 118.51163 28095 ft 516 kts 266°
2026-05-08 07:40 14.32257 118.47460 28375 ft 518 kts 266°
2026-05-08 07:40 14.31967 118.43755 28653 ft 521 kts 266°
2026-05-08 07:40 14.31673 118.40015 28939 ft 523 kts 266°
2026-05-08 07:40 14.31379 118.36275 29247 ft 525 kts 266°
2026-05-08 07:41 14.31083 118.32508 29554 ft 528 kts 266°
2026-05-08 07:41 14.30788 118.28781 29878 ft 530 kts 266°
2026-05-08 07:41 14.30488 118.24987 30168 ft 532 kts 266°
2026-05-08 07:41 14.30185 118.21163 30478 ft 534 kts 266°
2026-05-08 07:42 14.29883 118.17362 30770 ft 536 kts 266°
2026-05-08 07:42 14.29575 118.13499 31064 ft 538 kts 266°
2026-05-08 07:42 14.29268 118.09643 31352 ft 541 kts 266°
2026-05-08 07:42 14.28959 118.05781 31682 ft 542 kts 266°
2026-05-08 07:43 14.28648 118.01909 32106 ft 541 kts 266°
2026-05-08 07:43 14.28339 117.98055 32549 ft 539 kts 266°
2026-05-08 07:43 14.28030 117.94212 32993 ft 538 kts 266°
2026-05-08 07:43 14.27719 117.90364 33433 ft 537 kts 266°
2026-05-08 07:44 14.27409 117.86528 33864 ft 536 kts 266°
2026-05-08 07:44 14.27100 117.82706 34243 ft 534 kts 266°
2026-05-08 07:44 14.26791 117.78893 34616 ft 533 kts 266°
2026-05-08 07:44 14.26482 117.75090 34982 ft 532 kts 266°
2026-05-08 07:45 14.26176 117.71334 35352 ft 531 kts 266°
2026-05-08 07:45 14.25866 117.67535 35763 ft 530 kts 266°
2026-05-08 07:45 14.25558 117.63758 36139 ft 529 kts 266°
2026-05-08 07:45 14.25248 117.59975 36529 ft 528 kts 266°
2026-05-08 07:46 14.24939 117.56211 36907 ft 526 kts 266°
2026-05-08 07:46 14.24630 117.52449 37281 ft 526 kts 266°
2026-05-08 07:46 14.24321 117.48702 37663 ft 524 kts 266°
2026-05-08 07:46 14.24013 117.44967 38023 ft 523 kts 266°
2026-05-08 07:47 14.23705 117.41236 38372 ft 523 kts 266°
2026-05-08 07:47 14.23395 117.37499 38683 ft 522 kts 266°
2026-05-08 07:47 14.23087 117.33778 38947 ft 522 kts 266°
2026-05-08 07:47 14.22775 117.30032 38841 ft 521 kts 266°
2026-05-08 07:48 14.22467 117.26344 38845 ft 515 kts 266°
2026-05-08 07:48 14.21854 117.18992 38842 ft 519 kts 266°
2026-05-08 07:49 14.21231 117.11562 38843 ft 520 kts 266°
2026-05-08 07:49 14.20606 117.04141 38845 ft 520 kts 266°
2026-05-08 07:50 14.19979 116.96718 38841 ft 520 kts 266°
2026-05-08 07:50 14.19349 116.89277 38841 ft 520 kts 266°
2026-05-08 07:51 14.18715 116.81859 38842 ft 520 kts 266°
2026-05-08 07:51 14.18079 116.74414 38843 ft 521 kts 266°
2026-05-08 07:52 14.17446 116.67027 38843 ft 520 kts 266°
2026-05-08 07:52 14.16806 116.59585 38849 ft 521 kts 266°
2026-05-08 07:53 14.16165 116.52167 38847 ft 522 kts 266°
2026-05-08 07:53 14.15521 116.44742 38847 ft 521 kts 266°
2026-05-08 07:54 14.14872 116.37284 38847 ft 521 kts 266°
2026-05-08 07:54 14.14222 116.29841 38847 ft 522 kts 266°
2026-05-08 07:55 14.13575 116.22453 38849 ft 522 kts 266°
2026-05-08 07:55 14.12914 116.14948 38849 ft 521 kts 266°
2026-05-08 07:56 14.12257 116.07506 38843 ft 522 kts 266°
2026-05-08 07:56 14.11602 116.00102 38844 ft 522 kts 266°
2026-05-08 07:57 14.10944 115.92709 38853 ft 522 kts 266°
2026-05-08 07:57 14.10279 115.85255 38848 ft 522 kts 266°
2026-05-08 07:58 14.09614 115.77820 38853 ft 522 kts 266°
2026-05-08 07:58 14.08943 115.70358 38847 ft 522 kts 266°
2026-05-08 07:59 14.08271 115.62907 38854 ft 522 kts 266°
2026-05-08 07:59 14.07713 115.56725 38850 ft 522 kts 266°
2026-05-08 08:00 14.07037 115.49274 38850 ft 522 kts 266°
2026-05-08 08:00 14.06358 115.41829 38849 ft 522 kts 266°
2026-05-08 08:01 14.05680 115.34400 38848 ft 522 kts 266°
2026-05-08 08:01 14.04997 115.26951 38851 ft 522 kts 266°
2026-05-08 08:02 14.04311 115.19483 38849 ft 527 kts 265°
2026-05-08 08:02 14.03611 115.11884 38850 ft 535 kts 266°
2026-05-08 08:02 14.03266 115.08169 38848 ft 522 kts 265°
2026-05-08 08:03 14.02922 115.04475 38851 ft 517 kts 266°
2026-05-08 08:03 14.02248 114.97204 38850 ft 522 kts 265°
2026-05-08 08:04 14.01554 114.89763 38848 ft 521 kts 265°
2026-05-08 08:04 14.00860 114.82337 38850 ft 521 kts 265°
2026-05-08 08:05 14.00163 114.74910 38850 ft 521 kts 265°
2026-05-08 08:05 13.99462 114.67469 38851 ft 521 kts 265°
2026-05-08 08:06 13.98761 114.60049 38856 ft 521 kts 265°
2026-05-08 08:06 13.98057 114.52621 38853 ft 521 kts 265°
2026-05-08 08:07 13.97408 114.45213 38847 ft 519 kts 271°
2026-05-08 08:07 13.97626 114.37823 38854 ft 520 kts 270°
2026-05-08 08:08 13.97512 114.30374 38856 ft 520 kts 271°
2026-05-08 08:08 13.97496 114.22917 38853 ft 520 kts 271°
2026-05-08 08:09 13.97538 114.15494 38857 ft 520 kts 271°
2026-05-08 08:09 13.97587 114.08038 38859 ft 520 kts 271°
2026-05-08 08:10 13.97632 114.00585 38855 ft 520 kts 271°
2026-05-08 08:10 13.97674 113.93145 38856 ft 520 kts 271°
2026-05-08 08:11 13.97714 113.85734 38858 ft 520 kts 271°
2026-05-08 08:11 13.97752 113.78273 38856 ft 521 kts 271°
2026-05-08 08:12 13.97787 113.70821 38857 ft 520 kts 271°
2026-05-08 08:12 13.97820 113.63363 38854 ft 522 kts 271°
2026-05-08 08:13 13.97850 113.55877 38857 ft 521 kts 271°
2026-05-08 08:13 13.97878 113.48465 38857 ft 522 kts 271°
2026-05-08 08:14 13.97905 113.40991 38855 ft 522 kts 271°
2026-05-08 08:14 13.97930 113.33524 38858 ft 521 kts 271°
2026-05-08 08:15 13.97951 113.26049 38856 ft 522 kts 271°
2026-05-08 08:15 13.97971 113.18565 38858 ft 522 kts 271°
2026-05-08 08:16 13.97987 113.11084 38858 ft 522 kts 271°
2026-05-08 08:16 13.98003 113.03621 38860 ft 522 kts 271°
2026-05-08 08:17 13.98016 112.96147 38858 ft 522 kts 271°
2026-05-08 08:17 13.98028 112.88715 38857 ft 522 kts 271°
2026-05-08 08:18 13.98038 112.81245 38859 ft 522 kts 271°
2026-05-08 08:18 13.98045 112.73767 38859 ft 522 kts 271°
2026-05-08 08:19 13.98049 112.66291 38859 ft 522 kts 271°
2026-05-08 08:19 13.98052 112.58809 38866 ft 522 kts 271°
2026-05-08 08:20 13.98052 112.51324 38865 ft 522 kts 271°
2026-05-08 08:20 13.98050 112.43929 38866 ft 522 kts 271°
2026-05-08 08:21 13.98046 112.36497 38863 ft 522 kts 271°
2026-05-08 08:21 13.98039 112.29025 38865 ft 522 kts 271°
2026-05-08 08:22 13.98031 112.21538 38865 ft 522 kts 271°
2026-05-08 08:22 13.98019 112.14052 38862 ft 522 kts 271°
2026-05-08 08:23 13.98006 112.06579 38864 ft 522 kts 271°
2026-05-08 08:23 13.97990 111.99101 38865 ft 522 kts 271°
2026-05-08 08:24 13.97972 111.91631 38864 ft 522 kts 271°
2026-05-08 08:24 13.97952 111.84206 38860 ft 522 kts 271°
2026-05-08 08:25 13.97929 111.76711 38863 ft 522 kts 271°
2026-05-08 08:25 13.97904 111.69242 38864 ft 521 kts 271°
2026-05-08 08:26 13.97877 111.61781 38863 ft 521 kts 271°
2026-05-08 08:26 13.97848 111.54321 38863 ft 520 kts 271°
2026-05-08 08:27 13.97816 111.46865 38865 ft 520 kts 271°
2026-05-08 08:27 13.97777 111.39416 38861 ft 520 kts 271°
2026-05-08 08:28 13.97738 111.31976 38864 ft 519 kts 271°
2026-05-08 08:28 13.97696 111.24548 38864 ft 519 kts 271°
2026-05-08 08:29 13.97653 111.17160 38867 ft 519 kts 271°
2026-05-08 08:29 13.97607 111.09729 38863 ft 519 kts 271°
2026-05-08 08:30 13.97559 111.02282 38865 ft 519 kts 272°
2026-05-08 08:30 13.97483 110.91145 38865 ft 519 kts 272°
2026-05-08 08:31 13.97429 110.83754 38865 ft 519 kts 272°
2026-05-08 08:31 13.97373 110.76324 38868 ft 519 kts 272°
2026-05-08 08:32 13.97315 110.68895 38867 ft 519 kts 272°
2026-05-08 08:32 13.97254 110.61463 38867 ft 519 kts 272°
2026-05-08 08:33 13.97191 110.54008 38865 ft 518 kts 272°
2026-05-08 08:33 13.97126 110.46593 38867 ft 518 kts 272°
2026-05-08 08:34 13.97059 110.39225 38870 ft 518 kts 272°
2026-05-08 08:34 13.96990 110.31808 38870 ft 518 kts 272°
2026-05-08 08:35 13.96918 110.24384 38869 ft 519 kts 272°
2026-05-08 08:35 13.96844 110.16941 38870 ft 520 kts 272°
2026-05-08 08:36 13.96768 110.09519 38871 ft 521 kts 272°
2026-05-08 08:36 13.96690 110.02102 38867 ft 521 kts 272°
2026-05-08 08:37 13.96618 109.94628 38866 ft 522 kts 272°
2026-05-08 08:37 13.96563 109.87240 38867 ft 523 kts 272°
2026-05-08 08:38 13.96503 109.79819 38869 ft 522 kts 272°
2026-05-08 08:38 13.96438 109.72330 38869 ft 523 kts 272°
2026-05-08 08:39 13.96372 109.65046 38875 ft 523 kts 272°
2026-05-08 08:39 13.96303 109.57576 38866 ft 523 kts 272°
2026-05-08 08:40 13.96230 109.50088 38869 ft 523 kts 272°
2026-05-08 08:40 13.96156 109.42810 38872 ft 523 kts 272°
2026-05-08 08:41 13.96076 109.35280 38875 ft 522 kts 272°
2026-05-08 08:41 13.95996 109.27833 38875 ft 522 kts 271°
2026-05-08 08:42 13.95913 109.20378 38876 ft 521 kts 271°
2026-05-08 08:42 13.95827 109.12915 38878 ft 521 kts 271°
2026-05-08 08:43 13.95744 109.05496 38879 ft 520 kts 273°
2026-05-08 08:43 13.96411 108.98144 38884 ft 519 kts 274°
2026-05-08 08:44 13.96530 108.90687 38881 ft 519 kts 274°
2026-05-08 08:44 13.96774 108.83253 38881 ft 517 kts 275°
2026-05-08 08:45 13.97122 108.75879 38884 ft 517 kts 275°
2026-05-08 08:45 13.97475 108.68666 38885 ft 517 kts 275°
2026-05-08 08:46 13.97830 108.61358 38876 ft 516 kts 275°
2026-05-08 08:46 13.98114 108.55436 38878 ft 516 kts 275°
2026-05-08 08:47 13.98461 108.48188 38887 ft 516 kts 275°
2026-05-08 08:47 13.98768 108.41714 38868 ft 516 kts 275°
2026-05-08 08:48 13.99116 108.34344 38862 ft 516 kts 275°
2026-05-08 08:48 13.99462 108.26945 38859 ft 516 kts 275°
2026-05-08 08:49 13.99799 108.19723 38859 ft 515 kts 275°
2026-05-08 08:49 13.99939 108.16695 38854 ft 514 kts 275°
2026-05-08 08:50 14.00151 108.12129 38848 ft 515 kts 275°